Location: El Mouella
(16.4949°N, 9.1594°W)
Time: 05:21:19
(UTC+00:00)

H-2A R/B - Visible Passes

Search period start: 22 September 2020 00:00
Search period end: 02 October 2020 00:00
Orbit: 733 x 836 km, 98.2° (Epoch: 21 September)

Date Brightness Start Highest point End Pass type
(mag) Time Alt. Az. Time Alt. Az. Time Alt. Az.
22 Sep 2.6 20:25:09 24° SSW 20:27:50 52° W 20:32:40 10° NNW visible
23 Sep 1.8 19:53:55 23° SSE 19:56:55 65° ENE 20:01:51 10° N visible
24 Sep 2.8 19:22:41 13° SE 19:26:06 27° ENE 19:30:16 10° NNE visible
24 Sep 4.4 21:03:19 14° SW 21:05:22 18° W 21:08:41 10° NW visible
25 Sep 3.7 18:53:42 10° E 18:55:22 12° ENE 18:57:04 10° NE visible
25 Sep 3.0 20:32:05 26° SSW 20:34:20 42° W 20:39:04 10° NNW visible
26 Sep 1.8 20:00:51 29° SSE 20:03:24 80° ENE 20:08:25 10° N visible
27 Sep 2.6 19:29:36 18° SE 19:32:33 33° ENE 19:37:02 10° NNE visible
27 Sep 4.6 21:10:14 13° WSW 21:11:53 15° W 21:14:38 10° WNW visible
28 Sep 3.5 18:59:10 10° ESE 19:01:49 15° ENE 19:04:29 10° NE visible
28 Sep 3.4 20:39:00 26° SW 20:40:51 35° W 20:45:25 10° NW visible
29 Sep 1.9 20:07:46 35° S 20:09:53 85° WSW 20:14:57 10° NNW visible
30 Sep 2.3 19:36:32 24° SE 19:39:01 40° ENE 19:43:45 10° N visible
30 Sep 4.8 21:17:10 11° WSW 21:18:25 12° W 21:20:19 10° WNW visible
01 Oct 3.3 19:05:18 11° ESE 19:08:16 18° ENE 19:11:36 10° NNE visible
01 Oct 3.7 20:45:56 25° SW 20:47:22 29° W 20:51:43 10° NW visible
